UAL1082 KATL-MUHA

Flight info

Callsign UAL1082
Flight time N/A
Altitude 26000
Route RSW176053 CANOA ENTRY HA407 WOLSE
Aircraft B77W/H-SDE1E2E3FGHIJ2J3J4J5M1RWXY/LB1D1

Departure

Time N/A
Airport Hartsfield Jackson Atlanta International Airport (KATL)

Arrival

Time 2026-05-03 20:48
Airport José Martí International Airport (MUHA)
Time Latitude Longitude Altitude Speed Heading
2026-05-03 20:15 24.74733 -82.33780 35011 ft 429 kts 225°
2026-05-03 20:15 24.70236 -82.38098 35012 ft 429 kts 225°
2026-05-03 20:16 24.65736 -82.42415 35012 ft 429 kts 225°
2026-05-03 20:16 24.61229 -82.46734 35010 ft 430 kts 225°
2026-05-03 20:17 24.56719 -82.51051 35011 ft 430 kts 225°
2026-05-03 20:17 24.52204 -82.55371 35013 ft 430 kts 225°
2026-05-03 20:18 24.47685 -82.59688 35013 ft 431 kts 225°
2026-05-03 20:18 24.43186 -82.63983 35012 ft 431 kts 225°
2026-05-03 20:19 24.38657 -82.68302 35014 ft 432 kts 225°
2026-05-03 20:19 24.34119 -82.72625 35012 ft 432 kts 225°
2026-05-03 20:20 24.29636 -82.76888 34789 ft 421 kts 225°
2026-05-03 20:20 24.27418 -82.78998 34151 ft 422 kts 225°
2026-05-03 20:20 24.25195 -82.81112 33284 ft 424 kts 225°
2026-05-03 20:20 24.22968 -82.83230 32611 ft 422 kts 225°
2026-05-03 20:21 24.20753 -82.85332 31968 ft 420 kts 225°
2026-05-03 20:21 24.18552 -82.87421 31355 ft 418 kts 225°
2026-05-03 20:21 24.16363 -82.89498 30749 ft 415 kts 225°
2026-05-03 20:21 24.14181 -82.91568 30123 ft 414 kts 225°
2026-05-03 20:22 24.12009 -82.93628 29412 ft 412 kts 225°
2026-05-03 20:22 24.09850 -82.95675 28749 ft 409 kts 225°
2026-05-03 20:22 24.07699 -82.97713 28109 ft 407 kts 225°
2026-05-03 20:22 24.05572 -82.99727 27512 ft 404 kts 224°
2026-05-03 20:23 24.03449 -83.01728 26909 ft 399 kts 223°
2026-05-03 20:23 24.01119 -83.03343 26355 ft 401 kts 207°
2026-05-03 20:23 23.98464 -83.04189 26217 ft 406 kts 197°
2026-05-03 20:23 23.95600 -83.04488 26045 ft 423 kts 184°
2026-05-03 20:24 23.92645 -83.04130 26033 ft 432 kts 178°
2026-05-03 20:24 23.89659 -83.03653 26020 ft 434 kts 178°
2026-05-03 20:24 23.86678 -83.03170 25980 ft 431 kts 178°
2026-05-03 20:24 23.83728 -83.02700 25597 ft 427 kts 178°
2026-05-03 20:25 23.80803 -83.02248 25075 ft 423 kts 178°
2026-05-03 20:25 23.77903 -83.01814 24749 ft 415 kts 178°
2026-05-03 20:25 23.75055 -83.01395 24602 ft 412 kts 178°
2026-05-03 20:25 23.72181 -83.00983 24443 ft 420 kts 178°
2026-05-03 20:26 23.69264 -83.00568 24285 ft 425 kts 178°
2026-05-03 20:26 23.66336 -83.00150 24105 ft 424 kts 178°
2026-05-03 20:26 23.63416 -82.99729 23937 ft 421 kts 178°
2026-05-03 20:26 23.60524 -82.99312 23757 ft 419 kts 178°
2026-05-03 20:27 23.57639 -82.98897 23601 ft 417 kts 178°
2026-05-03 20:27 23.54802 -82.98489 23405 ft 416 kts 178°
2026-05-03 20:27 23.51905 -82.98073 23223 ft 414 kts 178°
2026-05-03 20:27 23.49051 -82.97664 23052 ft 413 kts 177°
2026-05-03 20:28 23.46213 -82.97257 22722 ft 410 kts 177°
2026-05-03 20:28 23.43426 -82.96858 22182 ft 408 kts 177°
2026-05-03 20:28 23.40644 -82.96460 21604 ft 407 kts 177°
2026-05-03 20:28 23.37817 -82.96055 21011 ft 405 kts 176°
2026-05-03 20:29 23.35029 -82.95656 20494 ft 403 kts 176°
2026-05-03 20:29 23.32208 -82.95256 20223 ft 415 kts 176°
2026-05-03 20:29 23.29327 -82.94848 19846 ft 417 kts 176°
2026-05-03 20:29 23.26457 -82.94436 19298 ft 415 kts 176°
2026-05-03 20:30 23.23603 -82.94025 18812 ft 411 kts 176°
2026-05-03 20:30 23.20794 -82.93621 18435 ft 403 kts 175°
2026-05-03 20:30 23.18039 -82.93226 18083 ft 395 kts 175°
2026-05-03 20:30 23.15345 -82.92841 17709 ft 388 kts 175°
2026-05-03 20:31 23.12685 -82.92463 17241 ft 384 kts 175°
2026-05-03 20:31 23.10053 -82.92088 16991 ft 375 kts 175°
2026-05-03 20:31 23.07489 -82.91591 16956 ft 379 kts 168°
2026-05-03 20:31 23.04954 -82.90808 16929 ft 378 kts 165°
2026-05-03 20:32 23.02377 -82.89897 16953 ft 402 kts 164°
2026-05-03 20:32 22.99722 -82.88948 16855 ft 398 kts 165°
2026-05-03 20:32 22.97149 -82.88048 16695 ft 378 kts 165°
2026-05-03 20:32 22.94709 -82.87224 16567 ft 357 kts 166°
2026-05-03 20:33 22.92382 -82.86537 16448 ft 338 kts 170°
2026-05-03 20:33 22.90136 -82.86015 16289 ft 323 kts 172°
2026-05-03 20:33 22.87947 -82.85604 16049 ft 317 kts 174°
2026-05-03 20:33 22.85807 -82.85247 15680 ft 316 kts 174°
2026-05-03 20:34 22.83618 -82.84893 15213 ft 320 kts 174°
2026-05-03 20:34 22.81408 -82.84546 14758 ft 322 kts 174°
2026-05-03 20:34 22.79181 -82.84205 14309 ft 324 kts 174°
2026-05-03 20:34 22.76938 -82.83869 13865 ft 326 kts 174°
2026-05-03 20:35 22.74683 -82.83540 13343 ft 325 kts 174°
2026-05-03 20:35 22.72462 -82.83218 12710 ft 319 kts 174°
2026-05-03 20:35 22.70276 -82.82905 12099 ft 314 kts 174°
2026-05-03 20:35 22.68135 -82.82600 11497 ft 309 kts 174°
2026-05-03 20:36 22.66016 -82.82351 10899 ft 303 kts 178°
2026-05-03 20:36 22.63886 -82.82285 10348 ft 309 kts 182°
2026-05-03 20:36 22.61743 -82.82434 10000 ft 307 kts 190°
2026-05-03 20:36 22.59740 -82.83030 9960 ft 291 kts 206°
2026-05-03 20:37 22.58134 -82.84268 9794 ft 281 kts 229°
2026-05-03 20:37 22.57200 -82.86088 9464 ft 279 kts 256°
2026-05-03 20:37 22.57265 -82.88157 9112 ft 280 kts 289°
2026-05-03 20:37 22.58434 -82.89804 8790 ft 281 kts 323°
2026-05-03 20:38 22.60146 -82.90826 8338 ft 283 kts 332°
2026-05-03 20:38 22.61970 -82.91622 7938 ft 283 kts 344°
2026-05-03 20:38 22.63921 -82.91847 7442 ft 290 kts 359°
2026-05-03 20:38 22.65958 -82.91696 6983 ft 295 kts
2026-05-03 20:39 22.67987 -82.91472 6509 ft 290 kts
2026-05-03 20:39 22.69974 -82.91244 6011 ft 285 kts
2026-05-03 20:39 22.71925 -82.91014 5512 ft 280 kts
2026-05-03 20:39 22.73845 -82.90782 5044 ft 276 kts
2026-05-03 20:40 22.75679 -82.90505 5004 ft 258 kts
2026-05-03 20:40 22.77419 -82.89932 5083 ft 271 kts 30°
2026-05-03 20:40 22.78818 -82.88565 5364 ft 273 kts 52°
2026-05-03 20:40 22.80078 -82.87033 5573 ft 274 kts 50°
2026-05-03 20:41 22.81045 -82.85209 5330 ft 284 kts 68°
2026-05-03 20:41 22.81776 -82.83227 5078 ft 280 kts 70°
2026-05-03 20:41 22.82401 -82.81247 4854 ft 276 kts 73°
2026-05-03 20:41 22.82939 -82.79262 4618 ft 273 kts 75°
2026-05-03 20:42 22.83423 -82.77306 4305 ft 265 kts 77°
2026-05-03 20:42 22.83839 -82.75416 3993 ft 258 kts 78°
2026-05-03 20:42 22.84212 -82.73545 3689 ft 250 kts 79°
2026-05-03 20:42 22.84562 -82.71729 3442 ft 245 kts 79°
2026-05-03 20:43 22.84905 -82.69910 3180 ft 249 kts 79°
2026-05-03 20:43 22.85247 -82.68075 3015 ft 245 kts 79°
2026-05-03 20:43 22.85589 -82.66315 2906 ft 235 kts 79°
2026-05-03 20:43 22.85934 -82.64607 2844 ft 224 kts 78°
2026-05-03 20:44 22.86306 -82.62938 2833 ft 232 kts 76°
2026-05-03 20:44 22.86745 -82.61237 2790 ft 236 kts 75°
2026-05-03 20:44 22.87211 -82.59513 2476 ft 240 kts 74°
2026-05-03 20:44 22.87789 -82.57846 2111 ft 233 kts 61°
2026-05-03 20:45 22.88673 -82.56374 2028 ft 238 kts 54°
2026-05-03 20:45 22.89648 -82.54930 2010 ft 233 kts 53°
2026-05-03 20:45 22.90580 -82.53533 1999 ft 226 kts 54°
2026-05-03 20:45 22.91479 -82.52173 1975 ft 217 kts 54°
2026-05-03 20:46 22.92337 -82.50871 2010 ft 211 kts 53°
2026-05-03 20:46 22.93199 -82.49567 1751 ft 212 kts 53°
2026-05-03 20:46 22.94039 -82.48302 1455 ft 202 kts 53°
2026-05-03 20:46 22.94850 -82.47073 1232 ft 195 kts 53°
2026-05-03 20:47 22.95602 -82.45934 989 ft 174 kts 53°
2026-05-03 20:47 22.96262 -82.44936 742 ft 153 kts 54°
2026-05-03 20:47 22.96870 -82.44012 576 ft 153 kts 53°
2026-05-03 20:47 22.97492 -82.43065 367 ft 151 kts 54°
2026-05-03 20:48 22.98087 -82.42165 230 ft 141 kts 55°
2026-05-03 20:48 22.98542 -82.41476 228 ft 78 kts 54°
2026-05-03 20:48 22.98864 -82.40989 227 ft 77 kts 53°
2026-05-03 20:48 22.99138 -82.40579 227 ft 41 kts 54°
2026-05-03 20:49 22.99287 -82.40421 230 ft 18 kts 20°
2026-05-03 20:49 22.99405 -82.40396 231 ft 16 kts
2026-05-03 20:49 22.99508 -82.40422 229 ft 15 kts 330°
2026-05-03 20:49 22.99548 -82.40453 230 ft 2 kts 323°
2026-05-03 20:50 22.99578 -82.40475 228 ft 12 kts 329°
2026-05-03 20:50 22.99658 -82.40515 230 ft 11 kts 333°
2026-05-03 20:50 22.99705 -82.40543 229 ft 9 kts 329°
2026-05-03 20:50 22.99754 -82.40584 230 ft 9 kts 296°
2026-05-03 20:51 22.99750 -82.40631 230 ft 3 kts 247°
2026-05-03 20:51 22.99738 -82.40657 228 ft 5 kts 238°
2026-05-03 20:51 22.99735 -82.40662 229 ft 0 kts 237°